Dewpoint
57 57 57 56 56 57 56 57 57 58 58 59 60 60 61 61 60 49 42 52 55 70 71 62 65 66 65 62 62 63 53 49 50 50 52 54 54 56 55 53 53 56 53 57 61
57 57 56 56 56 57 56 57 56 58 58 58 60 60 61 61 43 41 59 69 71 73 64 65 64 65 61 59 61 59 52 50 53 54 53 53 53 55 52 54 55 57 57 60 62
56 57 56 56 56 56 56 56 57 57 57 58 60 60 61 58 44 47 69 72 74 73 66 65 64 63 57 58 57 56 51 54 54 53 54 54 54 55 52 54 55 55 59 61 61
56 56 56 56 56 56 56 56 56 56 57 59 59 60 61 48 44 52 70 71 74 66 64 62 62 58 55 54 56 52 53 53 55 53 53 54 55 53 53 55 55 55 60 61 60
56 56 56 55 56 56 56 56 56 56 57 59 59 60 52 43 45 58 72 70 63 62 62 60 58 57 53 54 55 52 52 53 54 53 52 55 55 53 54 56 55 56 60 59 58
55 55 55 55 55 55 55 55 55 56 58 59 60 60 44 43 52 56 55 57 59 61 61 61 60 59 55 53 53 53 52 52 54 54 53 52 53 53 55 57 55 57 59 58 59
55 55 55 55 55 55 55 55 55 57 58 59 60 55 38 41 50 54 54 54 60 61 60 60 61 59 59 54 53 53 50 51 52 54 53 52 51 52 55 57 57 57 58 57 59
55 55 55 55 55 55 55 55 56 57 59 60 61 48 43 50 53 52 55 58 59 60 60 60 60 59 57 56 52 50 50 46 51 52 53 52 48 51 56 56 57 57 57 57 58
55 55 54 54 54 54 54 55 57 58 59 60 49 41 44 59 52 51 56 58 58 58 60 59 59 56 53 52 49 50 48 47 49 52 51 51 50 51 55 56 56 57 57 56 57
55 55 54 54 54 54 54 55 57 56 53 49 43 40 41 45 50 52 58 59 58 57 57 55 53 51 49 48 45 47 46 46 46 49 51 50 50 49 54 54 55 56 57 56 56
55 54 54 54 53 53 49 43 32 29 29 40 45 41 46 50 53 55 57 57 56 56 52 54 49 45 46 50 49 47 47 46 46 49 50 49 48 48 51 53 53 54 56 57 56
54 53 53 53 52 53 49 24 32 33 37 30 30 37 45 52 54 56 57 55 54 51 52 50 46 49 50 50 49 46 45 44 46 49 49 48 47 49 50 53 52 53 54 55 55
54 53 53 52 52 49 31 30 34 35 34 31 32 35 41 45 51 53 55 54 53 52 51 48 49 51 51 49 48 46 47 47 46 48 50 52 46 48 50 52 54 53 54 55 55
53 53 53 52 45 30 26 29 33 34 35 32 31 32 37 45 49 53 54 53 53 49 49 47 51 51 49 48 48 42 50 48 44 43 40 51 40 45 48 50 54 55 55 54 56
53 53 52 51 40 35 36 35 33 33 37 33 32 36 41 47 51 53 55 53 50 50 52 51 48 49 48 50 50 48 50 49 46 43 44 42 40 39 49 38 47 52 54 55 56
53 52 52 48 47 36 36 33 29 23 32 34 40 44 44 49 50 53 52 54 54 51 52 50 52 51 49 51 51 52 50 47 45 39 32 38 36 32 32 43 44 47 52 56 57
52 52 51 45 35 39 32 27 22 19 28 36 41 46 44 46 50 50 50 50 48 45 42 44 46 50 52 49 51 51 43 33 28 25 22 38 32 28 35 43 49 52 54 56 59
51 51 51 46 42 40 31 25 24 24 28 34 41 46 46 48 48 49 48 46 48 48 43 36 38 47 51 48 45 44 42 33 30 23 21 38 27 24 39 47 52 55 57 60 60
51 48 39 38 40 40 31 21 24 21 18 30 39 43 42 43 44 44 44 41 42 46 40 35 31 47 50 49 48 46 40 39 26 25 24 20 23 26 38 36 44 51 55 57 60
46 34 37 37 35 30 25 28 24 20 17 24 30 34 35 38 38 34 32 38 37 45 45 39 35 37 43 47 46 44 43 32 29 26 21 17 22 19 28 28 36 39 46 55 61
45 28 38 33 30 26 23 26 26 25 23 20 23 26 26 25 29 25 21 25 24 32 37 35 31 31 39 39 30 37 35 33 21 18 20 18 17 22 26 33 34 39 47 54 60
34 23 36 34 25 27 27 30 33 24 21 18 19 19 22 19 21 19 19 25 27 25 26 34 26 27 24 23 22 23 22 21 19 24 21 22 20 27 31 33 35 34 52 58 61
35 31 38 32 20 21 34 30 33 26 24 20 20 22 24 23 24 22 24 29 28 22 25 28 24 19 19 19 21 22 24 24 21 21 25 23 23 27 30 33 35 39 52 62 64
38 23 28 31 33 33 36 33 31 33 30 32 28 27 25 25 29 26 25 28 31 24 48 36 19 21 16 21 24 23 22 25 25 23 24 22 26 27 30 33 39 49 51 62 63
48 34 38 20 30 36 39 37 31 29 33 35 33 30 28 29 28 28 28 28 31 44 35 28 27 28 25 23 23 23 23 23 25 27 26 27 26 29 34 42 50 54 57 62 62
48 44 43 40 42 39 38 38 33 34 35 32 33 31 31 33 34 33 33 34 34 35 34 31 33 34 31 26 26 26 26 26 25 25 25 27 29 32 44 45 50 57 58 59 62
53 53 50 44 38 37 33 37 35 37 37 36 35 35 35 35 38 38 37 36 36 38 37 35 35 33 31 27 27 26 22 23 26 27 27 28 32 37 43 50 56 58 58 58 59
Lifted_Index
13 13 13 13 13 13 13 13 13 13 11 8 6 4 3 2 2 2 2 1 -0 -1 -2 -3 -3 -3 -3 -3 -3 -3 -3 -3 -3 -3 -2 -2 -2 -1 -1 -1 -1 -1 -1 -1 -1
13 13 13 13 13 13 13 13 13 13 11 8 6 4 3 3 2 2 2 2 0 -1 -3 -3 -4 -4 -3 -3 -3 -3 -3 -3 -2 -2 -2 -2 -2 -1 -1 -1 -1 -1 -1 -1 -1
12 12 13 13 13 13 13 13 13 13 11 8 6 4 3 3 2 3 3 2 0 -2 -3 -3 -4 -4 -4 -3 -3 -3 -3 -3 -2 -2 -2 -2 -2 -1 -1 -1 -1 -1 -1 -2 -1
12 12 12 13 13 13 13 13 13 13 11 9 6 4 3 3 2 3 3 3 0 -2 -3 -3 -4 -4 -4 -3 -3 -3 -3 -2 -2 -2 -2 -2 -2 -2 -1 -1 -1 -1 -1 -1 -1
11 12 12 13 13 13 13 13 13 12 11 9 6 4 3 3 2 2 3 2 -0 -2 -3 -3 -4 -4 -3 -3 -3 -2 -2 -2 -2 -2 -2 -2 -2 -2 -2 -1 -1 -1 -1 -1 -1
11 11 12 12 13 13 13 13 13 12 11 9 6 4 3 3 3 3 2 0 -1 -2 -3 -3 -3 -3 -3 -3 -3 -2 -2 -2 -2 -2 -2 -2 -2 -2 -2 -1 -1 -1 -1 -1 -1
11 11 11 12 13 13 14 13 13 12 11 9 7 4 3 3 3 2 1 -1 -2 -2 -3 -3 -3 -3 -3 -3 -2 -2 -2 -2 -2 -2 -2 -2 -2 -2 -2 -1 -1 -1 -1 -1 -1
11 11 11 12 13 13 13 13 13 12 12 9 6 4 3 3 3 2 0 -1 -2 -2 -3 -3 -3 -3 -2 -2 -2 -2 -2 -2 -2 -3 -3 -3 -2 -2 -2 -1 -1 -1 -0 -0 -1
11 11 11 12 13 13 13 13 12 12 11 9 5 3 3 3 2 1 -0 -1 -2 -2 -2 -2 -2 -2 -2 -2 -2 -2 -3 -3 -3 -3 -3 -3 -3 -2 -2 -2 -2 -1 -1 -0 -0
11 11 12 12 13 13 13 12 11 10 9 7 4 3 3 2 2 0 -1 -1 -2 -2 -2 -2 -2 -2 -2 -2 -3 -2 -2 -3 -3 -3 -3 -2 -2 -2 -2 -2 -2 -2 -1 -1 -1
11 11 12 13 13 13 12 10 8 6 5 4 3 3 3 2 1 -0 -1 -1 -2 -2 -2 -2 -2 -2 -2 -2 -2 -2 -2 -2 -2 -2 -2 -2 -2 -2 -2 -2 -2 -2 -2 -2 -1
11 12 12 13 13 12 10 8 6 5 3 3 3 4 3 1 -0 -1 -1 -2 -2 -2 -3 -3 -3 -2 -2 -2 -2 -2 -2 -3 -2 -2 -2 -2 -2 -2 -3 -3 -3 -3 -3 -2 -2
11 12 13 13 13 11 9 7 7 5 4 3 4 4 3 1 -0 -1 -1 -1 -2 -2 -3 -3 -3 -2 -2 -2 -2 -2 -3 -3 -2 -2 -2 -3 -3 -3 -3 -3 -3 -3 -3 -3 -3
11 12 13 13 11 9 8 8 8 6 3 2 3 4 3 1 -0 -1 -1 -1 -2 -2 -2 -3 -3 -2 -2 -2 -2 -2 -3 -2 -2 -2 -2 -2 -2 -3 -3 -3 -3 -3 -3 -3 -3
12 12 13 12 10 9 9 9 8 5 2 2 3 3 2 0 -0 -1 -1 -1 -2 -2 -3 -3 -3 -3 -2 -2 -2 -2 -2 -2 -1 -1 -1 -2 -2 -2 -2 -2 -2 -3 -3 -3 -4
12 13 13 11 10 9 9 9 7 4 2 2 2 1 1 -0 -1 -1 -1 -2 -2 -2 -3 -3 -3 -3 -3 -3 -3 -3 -2 -2 -1 -1 -1 -1 -0 -0 -1 -1 -1 -2 -3 -4 -4
12 13 12 11 10 9 9 8 6 4 3 2 1 0 -0 -1 -1 -1 -1 -2 -2 -2 -2 -2 -2 -3 -3 -3 -3 -2 -2 -1 -1 -1 -1 0 0 0 0 -1 -2 -3 -3 -4 -4
13 13 12 10 10 9 8 6 5 5 4 3 1 0 -0 -1 -1 -1 -1 -2 -2 -2 -2 -2 -2 -2 -3 -3 -2 -2 -1 -0 -0 -0 -0 0 0 1 0 -1 -2 -3 -4 -5 -5
12 12 11 10 10 9 8 6 5 5 5 4 2 1 -0 -0 -0 -0 -0 -1 -1 -1 -1 -1 -1 -1 -2 -2 -1 -1 -0 0 1 0 -0 -0 0 1 1 1 -0 -2 -4 -5 -5
11 11 10 10 10 9 7 6 5 5 5 4 3 2 1 1 1 2 2 1 1 0 0 0 1 1 0 0 0 1 1 2 2 1 1 0 0 1 3 3 2 0 -2 -4 -5
9 9 10 10 10 8 7 6 6 5 5 5 4 3 3 3 3 3 3 3 3 3 2 2 2 3 2 2 3 3 3 3 2 2 2 1 1 2 4 4 4 2 -1 -4 -5
9 9 10 10 9 7 6 5 5 5 5 5 5 4 4 4 4 4 4 5 5 5 5 4 4 4 4 4 5 5 4 4 3 3 2 2 3 4 4 4 4 3 -1 -3 -5
8 9 9 9 8 6 5 5 5 5 5 5 5 5 5 5 5 5 5 6 6 6 6 6 5 4 4 4 5 5 5 5 4 4 3 3 3 4 4 4 3 2 -1 -4 -4
7 8 8 8 7 5 4 4 4 5 5 5 6 6 6 6 6 6 6 6 6 6 6 6 5 5 4 4 5 5 5 5 5 4 4 4 4 4 4 3 2 0 -2 -4 -4
5 6 7 7 6 5 4 4 4 5 5 5 5 6 6 5 5 5 5 5 5 6 6 6 5 5 5 5 5 5 5 5 5 5 4 4 4 4 3 2 0 -2 -3 -4 -4
5 5 6 6 6 5 5 5 5 5 5 5 5 5 5 5 4 4 4 4 4 5 5 5 5 5 5 5 5 5 5 5 5 5 5 4 4 3 2 1 -1 -3 -4 -4 -4
5 5 5 5 5 5 5 5 5 5 5 5 5 4 4 4 4 4 4 4 4 4 4 4 5 4 4 5 5 5 5 5 5 5 5 4 4 3 1 -0 -2 -3 -4 -4 -5